sat.trackr.live / text

‹ back to catalog

STARLINK-35684

NORAD 66458 · 2025-262C

PAYLOAD ACTIVE UNKNOWN

§ Identity

Operator
Country
US
Launch date
2025-11-15
Launch site
AFETR
Launch vehicle
Mass (kg)
RCS (m²)

Purposes: comms

External: N2YO · Heavens-Above · Gunter

§ Orbital elements

Epoch: 2026-05-25T04:35:47.412672Z

Period
94.27 min
Inclination
42.9988°
Eccentricity
0.0001261
Mean motion
15.27585409 rev/d
Perigee alt
482.2 km
Apogee alt
483.9 km
Semi-major
6,861.2 km
B*
5.6188e-4
RAAN
224.3700°
Arg perigee
280.9956°
Mean anomaly
79.0754°
Rev number
3,060

§ Raw data

STARLINK-356841 66458U 25262C   26145.19152098  .00015234  00000+0  56188-3 0  99942 66458  42.9988 224.3700 0001261 280.9956  79.0754 15.27585409 30605

JSON: /api/v1/satellites/66458 · /tle

For live sub-satellite position, see the globe view (requires WebGL).

§ Visibility from observer

Set your observer location to see the next 7 days of passes ≥ 10°. The values pass through the URL so the page stays shareable.

No JS? Fill the form by hand. The geolocation button needs JavaScript.